Location: Unspecified
(0.0000°N, 0.0000°E)
Time: 02:57:17
(UTC+00:00)

Tiros 1 despin weight - All Passes

Search period start: 28 May 2017 00:00
Search period end: 07 June 2017 00:00
Orbit: 595 x 644 km, 48.2° (Epoch: 27 May)

Date Brightness Start Highest point End Pass type
(mag) Time Alt. Az. Time Alt. Az. Time Alt. Az.
28 May - 11:37:13 10° NW 11:41:51 66° SW 11:46:31 10° SSE daylight
28 May - 22:06:27 10° SSE 22:09:00 15° SE 22:11:31 10° E night (unlit)
28 May - 23:46:19 10° WSW 23:50:25 37° NW 23:54:29 10° NNE night (unlit)
29 May - 10:13:31 10° N 10:17:23 26° NE 10:21:16 10° ESE daylight
29 May - 11:55:01 10° WNW 11:58:49 24° SW 12:02:39 10° S daylight
29 May - 22:21:49 10° SSW 22:25:59 40° SE 22:30:07 10° ENE night (unlit)
30 May - 00:05:07 10° W 00:07:24 14° NW 00:09:40 10° NNW night (unlit)
30 May - 10:29:41 10° NNW 10:34:20 71° NE 10:39:01 10° SE daylight
30 May - 22:38:31 10° SW 22:42:56 68° NW 22:47:18 10° NNE night (unlit)
31 May - 09:07:06 10° NNE 09:09:50 15° NE 09:12:34 10° E daylight
31 May - 10:46:53 10° WNW 10:51:16 41° SW 10:55:43 10° SSE daylight
31 May - 21:14:56 10° S 21:18:29 23° SE 21:22:00 10° ENE night (unlit)
31 May - 22:56:18 10° WSW 22:59:52 24° NW 23:03:25 10° N night (unlit)
01 Jun - 09:22:28 10° NNW 09:26:48 39° NE 09:31:12 10° ESE daylight
01 Jun - 11:05:24 10° W 11:08:17 16° SW 11:11:11 10° SSW daylight
01 Jun - 21:31:01 10° SSW 21:35:27 66° SE 21:39:49 10° NE night (unlit)
02 Jun - 09:39:07 10° NW 09:43:44 74° SW 09:48:26 10° SSE daylight
02 Jun - 20:08:40 10° SSE 20:10:56 14° SE 20:13:11 10° E night (unlit)
02 Jun - 21:48:10 10° WSW 21:52:22 41° NW 21:56:32 10° NNE night (unlit)
03 Jun - 08:15:36 10° N 08:19:16 23° NE 08:22:59 10° ESE daylight
03 Jun - 09:56:47 10° WNW 10:00:42 27° SW 10:04:40 10° S daylight
03 Jun - 20:23:49 10° SSW 20:27:57 36° SE 20:32:01 10° ENE night (unlit)
03 Jun - 22:06:43 10° W 22:09:21 15° NW 22:11:58 10° NNW night (unlit)
04 Jun - 08:31:39 10° NNW 08:36:13 63° NE 08:40:52 10° SE daylight
04 Jun - 10:17:12 10° SW 10:17:45 10° SW 10:18:19 10° SW daylight
04 Jun - 20:40:25 10° SW 20:44:53 77° NW 20:49:18 10° NE night (unlit)
05 Jun - 07:09:24 10° NNE 07:11:43 14° NE 07:14:03 10° E daylight
05 Jun - 08:48:44 10° NW 08:53:09 46° SW 08:57:39 10° SSE daylight
05 Jun - 19:16:59 10° S 19:20:25 21° SE 19:23:48 10° E visible
05 Jun - 20:58:04 10° WSW 21:01:49 26° NW 21:05:32 10° N night (unlit)
06 Jun - 07:24:29 10° NNW 07:28:42 35° NE 07:32:58 10° ESE daylight
06 Jun - 09:07:03 10° W 09:10:09 18° SW 09:13:17 10° S daylight
06 Jun - 19:32:57 10° SSW 19:37:23 59° SE 19:41:45 10° NE visible
